Weather History for Macomb, IL

Change the Weather History Date:

Wednesday, October 31, 2012

  Actual Average (KBRL) Record (KBRL)
Temperature  
Mean Temperature 40 °F 50 °F  
Max Temperature 53 °F 60 °F 86 °F (1950)
Min Temperature 28 °F 40 °F 18 °F (1913)
Degree Days  
Heating Degree Days 24 15  
Month to date heating degree days 322  
Since 1 July heating degree days 394  
Cooling Degree Days 0 0  
Month to date cooling degree days 24  
Year to date cooling degree days 1206  
Moisture  
Dew Point 24 °F    
Average Humidity 61    
Maximum Humidity 88    
Minimum Humidity 25    
Precipitation  
Precipitation 0.00 in 0.09 in 0.87 in (1960)
Month to date precipitation 3.12  
Year to date precipitation 33.89  
Sea Level Pressure  
Sea Level Pressure 29.96 in    
Wind  
Wind Speed 11 mph (NW)    
Max Wind Speed 18 mph    
Max Gust Speed 24 mph    
Visibility 10 miles    
Events      
T = Trace of Precipitation, MM = Missing Value Source: NWS Daily Summary

Daily Weather History Graph

Daily Weather History Graph

Search for Another Location

Airport:

Trip Planner

Search our weather history database for the weather conditions in past years. The results will help you decide how hot, cold, wet, or windy it might be!

Date:

Astronomy

Oct. 31, 2012 Rise Set
Actual Time 7:32 AM CDT 5:59 PM CDT
Civil Twilight 7:03 AM CDT 6:28 PM CDT
Nautical Twilight 6:31 AM CDT 7:00 PM CDT
Astronomical Twilight 5:59 AM CDT 7:32 PM CDT
Moon 7:10 PM CDT (10/31) 9:13 AM CDT (10/31)
Length of Visible Light 11h 24m
Length of Day
10h 27m
Full, 97% of the Moon is Illuminated
Oct 31
Full
Nov 6
Last Quarter
Nov 13
New
Nov 20
First Quarter
Nov 28
Full

Hourly Weather History & Observations

Time (CDT) Temp. Windchill Dew Point Humidity Pressure Visibility Wind Dir Wind Speed Gust Speed Precip Events Conditions
12:15 AM 32.0 °F 24.8 °F 25.7 °F 78% 29.93 in 10.0 mi WNW 8.1 mph - N/A   Clear
12:35 AM 31.6 °F 23.1 °F 26.2 °F 80% 29.94 in 10.0 mi WNW 10.4 mph - N/A   Clear
12:55 AM 32.2 °F 23.8 °F 26.6 °F 80% 29.94 in 10.0 mi WNW 10.4 mph - N/A   Clear
1:15 AM 32.0 °F 24.2 °F 26.4 °F 80% 29.94 in 10.0 mi WNW 9.2 mph - N/A   Clear
1:35 AM 32.0 °F 23.6 °F 26.8 °F 81% 29.94 in 10.0 mi WNW 10.4 mph - N/A   Clear
1:55 AM 33.4 °F 24.8 °F 27.5 °F 79% 29.95 in 10.0 mi WNW 11.5 mph - N/A   Clear
2:15 AM 33.4 °F 24.8 °F 27.5 °F 79% 29.95 in 10.0 mi WNW 11.5 mph - N/A   Clear
2:35 AM 33.3 °F 25.1 °F 27.5 °F 79% 29.95 in 10.0 mi WNW 10.4 mph - N/A   Clear
2:55 AM 33.1 °F 24.4 °F 27.5 °F 80% 29.95 in 10.0 mi WNW 11.5 mph - N/A   Clear
3:15 AM 32.9 °F 24.1 °F 27.5 °F 81% 29.95 in 10.0 mi WNW 11.5 mph - N/A   Clear
3:35 AM 33.1 °F 24.9 °F 27.5 °F 80% 29.95 in 10.0 mi NW 10.4 mph - N/A   Clear
3:55 AM 34.7 °F 26.9 °F 27.3 °F 74% 29.94 in 10.0 mi NW 10.4 mph - N/A   Clear
4:15 AM 33.8 °F 25.3 °F 27.3 °F 77% 29.94 in 10.0 mi NW 11.5 mph - N/A   Clear
4:35 AM 33.6 °F 25.0 °F 27.3 °F 78% 29.94 in 10.0 mi NW 11.5 mph - N/A   Clear
4:55 AM 32.0 °F 23.6 °F 27.1 °F 82% 29.94 in 10.0 mi NW 10.4 mph - N/A   Clear
5:15 AM 33.3 °F 25.7 °F 27.1 °F 78% 29.95 in 10.0 mi NW 9.2 mph - N/A   Clear
5:35 AM 32.5 °F 23.2 °F 27.1 °F 80% 29.95 in 10.0 mi NW 12.7 mph - N/A   Clear
5:55 AM 32.5 °F 24.2 °F 26.8 °F 79% 29.95 in 10.0 mi NW 10.4 mph - N/A   Clear
6:15 AM 32.0 °F 23.6 °F 26.6 °F 80% 29.95 in 10.0 mi NW 10.4 mph - N/A   Clear
6:35 AM 31.6 °F 23.7 °F 26.4 °F 81% 29.95 in 10.0 mi NW 9.2 mph - N/A   Clear
6:55 AM 30.4 °F 24.5 °F 25.7 °F 83% 29.96 in 10.0 mi NW 5.8 mph - N/A   Clear
7:15 AM 28.6 °F 20.7 °F 25.3 °F 88% 29.96 in 10.0 mi NW 8.1 mph - N/A   Clear
7:35 AM 28.8 °F 20.9 °F 25.0 °F 86% 29.97 in 10.0 mi NW 8.1 mph - N/A   Clear
7:55 AM 29.1 °F 20.0 °F 25.5 °F 86% 29.97 in 10.0 mi NW 10.4 mph - N/A   Clear
8:15 AM 29.8 °F 22.2 °F 25.9 °F 85% 29.97 in 10.0 mi WNW 8.1 mph - N/A   Clear
8:35 AM 31.1 °F 23.1 °F 26.8 °F 84% 29.98 in 10.0 mi NW 9.2 mph - N/A   Clear
8:55 AM 32.5 °F 24.2 °F 27.0 °F 80% 29.98 in 10.0 mi NW 10.4 mph - N/A   Clear
9:15 AM 34.0 °F 24.6 °F 27.1 °F 76% 29.98 in 10.0 mi NW 13.8 mph - N/A   Clear
9:35 AM 35.4 °F 26.0 °F 27.5 °F 73% 29.98 in 10.0 mi NNW 15.0 mph - N/A   Clear
9:55 AM 36.5 °F 27.0 °F 27.7 °F 70% 29.99 in 10.0 mi NW 16.1 mph - N/A   Clear
10:15 AM 37.8 °F 30.2 °F 27.7 °F 67% 29.99 in 10.0 mi NW 11.5 mph - N/A   Clear
10:35 AM 38.7 °F 30.5 °F 27.9 °F 65% 29.99 in 10.0 mi NW 13.8 mph - N/A   Clear
10:55 AM 39.6 °F 33.0 °F 27.9 °F 63% 29.99 in 10.0 mi NW 10.4 mph - N/A   Clear
11:15 AM 41.5 °F 35.4 °F 27.9 °F 58% 29.99 in 10.0 mi WNW 10.4 mph - N/A   Clear
11:35 AM 42.8 °F 36.6 °F 26.2 °F 52% 29.99 in 10.0 mi NW 11.5 mph 17.3 mph N/A   Clear
11:55 AM 44.1 °F 38.1 °F 24.8 °F 47% 29.98 in 10.0 mi NW 11.5 mph 17.3 mph N/A   Clear
12:15 PM 45.5 °F 38.6 °F 22.8 °F 41% 29.98 in 10.0 mi NNW 16.1 mph 21.9 mph N/A   Clear
12:35 PM 46.8 °F - 22.3 °F 38% 29.97 in 10.0 mi NW 12.7 mph 20.7 mph N/A   Clear
12:55 PM 48.2 °F - 21.2 °F 34% 29.97 in 10.0 mi WNW 15.0 mph 20.7 mph N/A   Clear
1:15 PM 49.1 °F - 21.4 °F 34% 29.97 in 10.0 mi NW 17.3 mph 23.0 mph N/A   Clear
1:35 PM 49.6 °F - 20.8 °F 32% 29.97 in 10.0 mi NW 15.0 mph 24.2 mph N/A   Clear
1:55 PM 50.5 °F - 19.9 °F 30% 29.96 in 10.0 mi NW 15.0 mph 23.0 mph N/A   Clear
2:15 PM 51.8 °F - 19.4 °F 28% 29.95 in 10.0 mi NW 16.1 mph 24.2 mph N/A   Clear
2:35 PM 52.2 °F - 19.2 °F 27% 29.95 in 10.0 mi WNW 17.3 mph 24.2 mph N/A   Clear
2:55 PM 52.9 °F - 19.2 °F 27% 29.94 in 10.0 mi NW 13.8 mph 23.0 mph N/A   Clear
3:15 PM 53.2 °F - 19.8 °F 27% 29.94 in 10.0 mi WNW 17.3 mph 21.9 mph N/A   Clear
3:35 PM 53.6 °F - 19.0 °F 26% 29.94 in 10.0 mi NW 17.3 mph - N/A   Clear
3:55 PM 53.2 °F - 19.6 °F 27% 29.94 in 10.0 mi NW 18.4 mph - N/A   Clear
4:15 PM 53.2 °F - 19.0 °F 26% 29.94 in 10.0 mi NW 17.3 mph - N/A   Clear
4:35 PM 53.1 °F - 19.2 °F 27% 29.94 in 10.0 mi WNW 18.4 mph - N/A   Clear
4:55 PM 52.7 °F - 17.8 °F 25% 29.94 in 10.0 mi NW 16.1 mph - N/A   Clear
5:15 PM 51.8 °F - 18.5 °F 27% 29.94 in 10.0 mi NW 15.0 mph - N/A   Clear
5:35 PM 50.5 °F - 21.0 °F 31% 29.95 in 10.0 mi WNW 10.4 mph - N/A   Clear
5:55 PM 47.5 °F - 22.8 °F 38% 29.95 in 10.0 mi NW 8.1 mph - N/A   Clear
6:15 PM 43.3 °F 38.6 °F 23.7 °F 46% 29.96 in 10.0 mi NW 8.1 mph - N/A   Clear
6:35 PM 41.7 °F 36.7 °F 23.4 °F 48% 29.96 in 10.0 mi NW 8.1 mph - N/A   Clear
6:55 PM 39.2 °F 33.0 °F 23.0 °F 52% 29.97 in 10.0 mi WNW 9.2 mph - N/A   Clear
7:15 PM 38.3 °F 32.5 °F 22.8 °F 54% 29.97 in 10.0 mi WNW 8.1 mph - N/A   Clear
7:35 PM 37.6 °F 32.3 °F 23.2 °F 56% 29.97 in 10.0 mi WNW 6.9 mph - N/A   Clear
7:55 PM 37.0 °F 29.8 °F 23.0 °F 57% 29.97 in 10.0 mi WNW 10.4 mph - N/A   Clear
8:15 PM 35.1 °F 27.4 °F 24.3 °F 65% 29.98 in 10.0 mi WNW 10.4 mph - N/A   Clear
8:35 PM 34.7 °F 26.9 °F 24.3 °F 66% 29.98 in 10.0 mi WNW 10.4 mph - N/A   Clear
8:55 PM 35.4 °F 27.3 °F 23.9 °F 63% 29.97 in 10.0 mi WNW 11.5 mph - N/A   Clear
9:15 PM 34.5 °F 26.7 °F 24.4 °F 67% 29.97 in 10.0 mi WNW 10.4 mph - N/A   Clear
9:35 PM 35.6 °F 28.6 °F 23.5 °F 62% 29.97 in 10.0 mi West 9.2 mph - N/A   Clear
9:55 PM 36.3 °F 30.1 °F 23.9 °F 61% 29.97 in 10.0 mi West 8.1 mph - N/A   Clear
10:15 PM 35.2 °F 27.6 °F 24.3 °F 64% 29.97 in 10.0 mi West 10.4 mph - N/A   Clear
10:35 PM 34.9 °F 27.1 °F 24.8 °F 67% 29.97 in 10.0 mi WNW 10.4 mph - N/A   Clear
10:55 PM 35.2 °F 27.6 °F 24.6 °F 65% 29.97 in 10.0 mi West 10.4 mph - N/A   Clear
11:15 PM 34.9 °F 26.6 °F 24.6 °F 66% 29.97 in 10.0 mi West 11.5 mph - N/A   Clear
11:35 PM 34.5 °F 26.2 °F 24.8 °F 68% 29.97 in 10.0 mi WNW 11.5 mph - N/A   Clear
11:55 PM 33.8 °F 25.3 °F 24.8 °F 70% 29.97 in 10.0 mi WNW 11.5 mph - N/A   Clear